Voltar ao catálogo

STARLINK-30244

AtivoComunicaçõesVLEO
NORAD 57614·PAYLOAD·🇺🇸 United States

Lançado Aug 11, 2023 de Cape Canaveral Space Force Station

Loading…

Próximas Passagens (próximas 24 horas)

TLE

AtualizadoSource: CelesTrak SupGP

Época: Sep 15, 2026, 02:47 UTC

1 57614C 23119N   26258.11645833  .00004037  00000+0  14621-3 0  2581
2 57614  43.0001  91.6667 0001473 270.0034 253.7295 15.27580558    19

Acompanhe STARLINK-30244 em tempo real com AllMySat

Download on the App Store